Jefferson, NC

1:44 PM EST on November 22, 2019 (GMT -0500)
Ashe County

Weather History for KGEV - September, 2019

Change the Weather History Date:

Monday, September 2, 2019

  Actual Average Record
Temperature  
Mean Temperature 66 °F -  
Max Temperature 78 °F 77 °F 87 °F (1993)
Min Temperature 54 °F 55 °F 39 °F (1967)
Cooling Degree Days 1    
Growing Degree Days 16 (Base 50)    
Moisture  
Dew Point 59 °F    
Average Humidity 76    
Maximum Humidity 100    
Minimum Humidity 49    
Precipitation  
Precipitation 0.00 in - - ()
Sea Level Pressure  
Sea Level Pressure 30.20 in    
Wind  
Wind Speed 1 mph ()    
Max Wind Speed 9 mph    
Max Gust Speed -    
Visibility 9.2 miles    
Events Fog    
Averages and records for this station are not official NWS values.
T = Trace of Precipitation, MM = Missing Value Source: Averaged Metar Reports

Daily Weather History Graph

Daily Weather History Graph

Search for Another Location

Airport or City:

Astronomy

Sep. 02, 2019 Rise Set
Actual Time 6:57 AM EDT 7:52 PM EDT
Civil Twilight 6:31 AM EDT 8:18 PM EDT
Nautical Twilight 6:00 AM EDT 8:49 PM EDT
Astronomical Twilight 5:27 AM EDT 9:22 PM EDT
Moon 10:32 AM EDT (9/2) 10:19 PM EDT (9/2)
Length of Visible Light 13h 47m
Length of Day
12h 54m
Waxing Crescent, 15% of the Moon is Illuminated
Sep 2
Waxing Crescent
Sep 5
First Quarter
Sep 14
Full
Sep 21
Last Quarter
Sep 28
New

Hourly Weather History & Observations

Time (EDT) Temp. Dew Point Humidity Pressure Visibility Wind Dir Wind Speed Gust Speed Precip Events Conditions
12:15 AM 63.5 °F 58.6 °F 84% 30.26 in 10.0 mi Calm Calm - N/A   Clear
12:55 AM 64.2 °F 58.6 °F 82% 30.26 in 10.0 mi Calm Calm - N/A   Clear
1:15 AM 62.6 °F 58.6 °F 87% 30.25 in 10.0 mi Calm Calm - N/A   Clear
1:35 AM 61.9 °F 58.1 °F 87% 30.25 in 10.0 mi Calm Calm - N/A   Clear
1:55 AM 60.6 °F 58.1 °F 91% 30.25 in 10.0 mi Calm Calm - N/A   Clear
2:15 AM 59.7 °F 57.9 °F 94% 30.24 in 10.0 mi Calm Calm - N/A   Clear
2:35 AM 58.8 °F 57.6 °F 96% 30.24 in 10.0 mi Calm Calm - N/A   Clear
2:55 AM 58.5 °F 57.6 °F 97% 30.23 in 10.0 mi Calm Calm - N/A   Clear
3:15 AM 57.9 °F 57.4 °F 98% 30.22 in 10.0 mi Calm Calm - N/A   Clear
3:35 AM 57.7 °F 57.4 °F 99% 30.22 in 5.0 mi Calm Calm - N/A   Clear
3:55 AM 56.5 °F 55.8 °F 97% 30.22 in 5.0 mi Calm Calm - N/A   Clear
4:15 AM 57.6 °F 57.4 °F 99% 30.22 in 7.0 mi Calm Calm - N/A   Clear
4:35 AM 57.4 °F 57.2 °F 99% 30.22 in 10.0 mi Calm Calm - N/A   Clear
4:55 AM 57.7 °F 57.4 °F 99% 30.22 in 5.0 mi NW 3.5 mph - N/A   Clear
5:15 AM 58.6 °F 57.7 °F 97% 30.22 in 10.0 mi Calm Calm - N/A   Clear
5:35 AM 56.3 °F 56.3 °F 100% 30.22 in 5.0 mi Calm Calm - N/A   Scattered Clouds
5:55 AM 56.8 °F 56.3 °F 98% 30.22 in 10.0 mi Calm Calm - N/A   Clear
6:15 AM 56.1 °F 55.9 °F 99% 30.22 in 1.2 mi Calm Calm - N/A   Scattered Clouds
6:55 AM 55.8 °F 55.0 °F 97% 30.22 in 7.0 mi Calm Calm - N/A   Clear
7:15 AM 54.0 °F 53.8 °F 99% 30.23 in 0.8 mi Calm Calm - N/A   Mostly Cloudy
7:35 AM 55.8 °F 55.8 °F 100% 30.23 in 0.5 mi Calm Calm - N/A Fog Fog
7:55 AM 57.7 °F 56.8 °F 97% 30.23 in 10.0 mi Calm Calm - N/A   Scattered Clouds
8:15 AM 60.1 °F 58.3 °F 94% 30.23 in 10.0 mi Calm Calm - N/A   Clear
8:35 AM 59.5 °F 58.6 °F 97% 30.23 in 10.0 mi Calm Calm - N/A   Clear
8:55 AM 61.2 °F 59.0 °F 93% 30.24 in 10.0 mi Calm Calm - N/A   Clear
9:15 AM 63.5 °F 60.4 °F 90% 30.24 in 10.0 mi Calm Calm - N/A   Clear
9:35 AM 64.0 °F 59.7 °F 86% 30.24 in 10.0 mi Calm Calm - N/A   Clear
9:55 AM 65.1 °F 61.0 °F 86% 30.24 in 10.0 mi Calm Calm - N/A   Clear
10:15 AM 67.1 °F 62.2 °F 84% 30.23 in 10.0 mi Calm Calm - N/A   Clear
10:35 AM 68.7 °F 62.6 °F 81% 30.23 in 10.0 mi Calm Calm - N/A   Clear
10:55 AM 70.7 °F 62.8 °F 76% 30.23 in 10.0 mi Calm Calm - N/A   Clear
11:15 AM 73.8 °F 60.6 °F 63% 30.23 in 10.0 mi Calm Calm - N/A   Scattered Clouds
11:35 AM 73.8 °F 59.9 °F 62% 30.23 in 10.0 mi NW 6.9 mph - N/A   Clear
11:55 AM 74.8 °F 60.6 °F 61% 30.23 in 10.0 mi NW 5.8 mph - N/A   Clear
12:15 PM 75.0 °F 61.0 °F 62% 30.22 in 10.0 mi NW 5.8 mph - N/A   Scattered Clouds
12:35 PM 76.3 °F 60.1 °F 57% 30.22 in 10.0 mi NW 3.5 mph - N/A   Scattered Clouds
12:55 PM 74.8 °F 59.4 °F 58% 30.21 in 10.0 mi NW 4.6 mph - N/A   Scattered Clouds
1:15 PM 76.6 °F 59.2 °F 55% 30.21 in 10.0 mi NW 4.6 mph - N/A   Scattered Clouds
1:35 PM 75.2 °F 61.0 °F 61% 30.20 in 10.0 mi Calm Calm - N/A   Mostly Cloudy
1:55 PM 76.5 °F 59.4 °F 55% 30.20 in 10.0 mi NW 4.6 mph - N/A   Scattered Clouds
2:35 PM 78.4 °F 57.9 °F 49% 30.19 in 10.0 mi NW 6.9 mph - N/A   Mostly Cloudy
2:55 PM 77.4 °F 58.8 °F 53% 30.18 in 10.0 mi NW 3.5 mph - N/A   Scattered Clouds
3:15 PM 77.5 °F 58.5 °F 52% 30.17 in 10.0 mi NW 3.5 mph - N/A   Clear
3:35 PM 78.4 °F 58.1 °F 50% 30.16 in 10.0 mi Calm Calm - N/A   Clear
3:55 PM 77.5 °F 57.6 °F 50% 30.16 in 10.0 mi NW 6.9 mph - N/A   Scattered Clouds
4:15 PM 76.5 °F 57.4 °F 52% 30.15 in 10.0 mi NW 4.6 mph - N/A   Scattered Clouds
4:35 PM 77.7 °F 57.9 °F 50% 30.15 in 10.0 mi NW 4.6 mph - N/A   Scattered Clouds
4:55 PM 78.4 °F 58.3 °F 50% 30.15 in 10.0 mi NW 4.6 mph - N/A   Clear
5:15 PM 77.9 °F 59.0 °F 52% 30.14 in 10.0 mi NW 4.6 mph - N/A   Clear
5:35 PM 77.9 °F 59.0 °F 52% 30.14 in 10.0 mi NW 9.2 mph - N/A   Clear
5:55 PM 77.9 °F 59.7 °F 53% 30.14 in 10.0 mi NW 6.9 mph - N/A   Clear
6:15 PM 77.5 °F 60.1 °F 55% 30.14 in 10.0 mi NW 8.1 mph - N/A   Clear
6:35 PM 77.2 °F 59.9 °F 55% 30.14 in 10.0 mi NW 5.8 mph - N/A   Clear
6:55 PM 75.9 °F 58.6 °F 55% 30.14 in 10.0 mi NW 4.6 mph - N/A   Clear
7:15 PM 74.8 °F 60.8 °F 62% 30.14 in 10.0 mi NW 4.6 mph - N/A   Clear
7:35 PM 73.4 °F 60.8 °F 65% 30.14 in 10.0 mi NW 3.5 mph - N/A   Clear
7:55 PM 73.6 °F 60.8 °F 64% 30.15 in 10.0 mi Calm Calm - N/A   Clear
8:15 PM 72.5 °F 60.8 °F 67% 30.14 in 10.0 mi Calm Calm - N/A   Clear
8:35 PM 70.3 °F 61.7 °F 74% 30.15 in 10.0 mi NW 3.5 mph - N/A   Clear
8:55 PM 70.9 °F 61.3 °F 72% 30.15 in 10.0 mi NW 3.5 mph - N/A   Clear
9:15 PM 70.5 °F 61.3 °F 73% 30.15 in 10.0 mi NW 5.8 mph - N/A   Clear
9:35 PM 70.7 °F 61.5 °F 73% 30.16 in 10.0 mi NW 5.8 mph - N/A   Scattered Clouds
9:55 PM 71.6 °F 60.4 °F 68% 30.16 in 10.0 mi NW 8.1 mph - N/A   Clear
10:15 PM 71.4 °F 60.4 °F 68% 30.17 in 10.0 mi NW 5.8 mph - N/A   Clear
10:35 PM 70.5 °F 60.8 °F 71% 30.17 in 10.0 mi NW 3.5 mph - N/A   Clear
10:55 PM 64.8 °F 61.7 °F 90% 30.17 in 10.0 mi Calm Calm - N/A   Clear
11:15 PM 68.0 °F 61.3 °F 79% 30.17 in 10.0 mi NW 3.5 mph - N/A   Scattered Clouds
11:35 PM 66.7 °F 60.8 °F 81% 30.17 in 10.0 mi Calm Calm - N/A   Scattered Clouds
11:55 PM 67.5 °F 61.2 °F 80% 30.17 in 10.0 mi Calm Calm - N/A   Clear